星链-31298 (STARLINK-31298 )

导读 | 星芒AI

STARLINK-31298 是 SpaceX Starlink 项目中的一颗低轨通信卫星,属于该星座的众多组网卫星之一。该卫星旨在提供全球范围内的高速互联网服务,尤其服务于传统网络难以覆盖的偏远地区。它运行在约 550 公里的轨道高度,采用先进的推进和通信技术,具备自动避撞功能。STARLINK-31298 的发射和运行有助于增强 Starlink 网络的覆盖密度和连接稳定性,推动全球宽带互联网的普及。

基本信息
目录编号:
59167
目录名称:
STARLINK-31298
国际标识:
2024-044R
轨道中心:
EARTH
卫星名称:
星链-31298
卫星全名:
星链-31298 (STARLINK-31298 )
卫星状态:
在轨 (已飞行609 天)
发射日期:
2024-03-04 UTC
国别 :
美国 (US)
星等 :
--
轨道信息
数据来源 国际轨道数据 AOE轨道数据
星历时间 2025-11-02T19:58:42+0800
14小时前
查看轨道信息
2025-10-31T00:00:00+0800
3天前
查看轨道信息
半长轴 6861.226km 6861.163km
偏心率 0.0001163 0.0001209
轨道倾角 43.004° 43.002°
近地点辐角 271.964° 264.207°
升交点赤经 105.316° 121.313°
平近点角 88.108° 341.324°
近地点 482.293km 482.198km
远地点 483.889km 483.858km
周期 94.268分钟 94.266分钟
每日圈数 15.275667 15.275879
详细信息
固有亮度:
5
最大亮度:
0.3
卫星平台:
Starlink v2.0 mini
覆盖范围:
全球
运营商:
太空探索技术公司
运营商所在国:
美国
制造商(研发单位):
太空探索技术公司
制造商所在国:
美国
使用方式:
暂无
卫星简介
星链(Starlink)计划是由太空探索技术公司(SpaceX)提出的一个巨型低轨卫星互联网星座项目,计划在2019年至2024年间在太空搭建由约1.2万颗卫星组成的“星链”网络,其中1584颗将部署在地球上空550千米处的近地轨道,并从2020年开始工作。该卫星仍在工作。
2D轨道图
3D轨道图
轨道高度分析图
轨道倾角分析图
轨道综合分析图
查看轨道综合分析图